This demonstration page uses our WeatherBlox Daily Observations layout. Learn more.

Hourly Observations for September 13, 2020

Temp ( °F °C ) Dew Point ( °F °C ) Humidity (%) Winds ( mph kmh ) Pressure ( in mb ) Visibility ( mi km ) Precip ( " mm )
12:15 am 00:15 Mostly Cloudy 63 17 59 15 88 88 SE 6 9 30.23 1024 10 16.0934 0 0
12:35 am 00:35 Cloudy 63 17 59 15 88 88 SE 5 7 30.23 1024 10 16.0934 0 0
12:55 am 00:55 Cloudy 63 17 59 15 88 88 Calm 30.23 1024 10 16.0934 0 0
1:15 am 01:15 Cloudy 63 17 59 15 88 88 ESE 5 7 30.22 1023 10 16.0934 0 0
1:35 am 01:35 Cloudy 63 17 59 15 88 88 Calm 30.22 1023 10 16.0934 0 0
1:55 am 01:55 Cloudy 61 16 59 15 94 94 Calm 30.21 1023 10 16.0934 0 0
2:15 am 02:15 Mostly Cloudy 61 16 59 15 94 94 Calm 30.21 1023 10 16.0934 0 0
2:35 am 02:35 Partly Cloudy 61 16 59 15 94 94 Calm 30.2 1023 10 16.0934 0 0
2:55 am 02:55 Clear 61 16 59 15 94 94 Calm 30.2 1023 10 16.0934 0 0
3:15 am 03:15 Mostly Cloudy 59 15 59 15 100 100 Calm 30.21 1023 10 16.0934 0 0
3:35 am 03:35 Cloudy 59 15 59 15 100 100 Calm 30.2 1023 10 16.0934 0 0
3:55 am 03:55 Mostly Cloudy 59 15 59 15 100 100 Calm 30.19 1022 10 16.0934 0 0
4:15 am 04:15 Partly Cloudy 59 15 59 15 100 100 Calm 30.19 1022 10 16.0934 0 0
4:35 am 04:35 Partly Cloudy 59 15 57 14 94 94 Calm 30.18 1022 10 16.0934 0 0
4:55 am 04:55 Clear 57 14 57 14 100 100 Calm 30.17 1022 10 16.0934 0 0
5:15 am 05:15 Clear 57 14 57 14 100 100 Calm 30.17 1022 10 16.0934 0 0
5:35 am 05:35 Clear 55 13 55 13 100 100 Calm 30.17 1022 10 16.0934 0 0
5:55 am 05:55 Clear 55 13 55 13 100 100 Calm 30.17 1022 10 16.0934 0 0
6:15 am 06:15 Clear 55 13 55 13 100 100 Calm 30.16 1021 10 16.0934 0 0
6:35 am 06:35 Clear 55 13 55 13 100 100 Calm 30.16 1021 10 16.0934 0 0
6:55 am 06:55 Sunny 55 13 55 13 100 100 Calm 30.16 1021 10 16.0934 0 0
7:15 am 07:15 Sunny 55 13 55 13 100 100 Calm 30.16 1021 10 16.0934 0 0
7:35 am 07:35 Sunny 55 13 55 13 100 100 Calm 30.16 1021 10 16.0934 0 0
7:55 am 07:55 Sunny 55 13 55 13 100 100 Calm 30.16 1021 10 16.0934 0 0
8:15 am 08:15 Sunny 57 14 55 13 94 94 Calm 30.16 1021 10 16.0934 0 0
8:35 am 08:35 Sunny 59 15 57 14 94 94 Calm 30.16 1021 10 16.0934 0 0
8:55 am 08:55 Sunny 61 16 59 15 94 94 Calm 30.16 1021 10 16.0934 0 0
9:15 am 09:15 Sunny 61 16 59 15 94 94 Calm 30.16 1021 10 16.0934 0 0
9:35 am 09:35 Sunny 63 17 59 15 88 88 Calm 30.15 1021 10 16.0934 0 0
9:55 am 09:55 Sunny 64 18 59 15 83 83 Calm 30.14 1021 10 16.0934 0 0
10:15 am 10:15 Partly Cloudy 64 18 59 15 83 83 S 5 7 30.15 1021 10 16.0934 0 0
10:35 am 10:35 Partly Cloudy 68 20 61 16 78 78 S 7 11 30.14 1021 10 16.0934 0 0
10:55 am 10:55 Partly Cloudy 68 20 61 16 78 78 S 9 15 30.14 1021 10 16.0934 0 0
11:15 am 11:15 Partly Cloudy 70 21 61 16 73 73 S 9 15 30.14 1021 10 16.0934 0 0
11:35 am 11:35 Sunny 72 22 61 16 69 69 S 9 15 30.13 1020 10 16.0934 0 0
11:55 am 11:55 Sunny 72 22 61 16 69 69 S 3 6 30.12 1020 10 16.0934 0 0
12:15 pm 12:15 Sunny 72 22 61 16 69 69 S 9 15 30.11 1020 10 16.0934 0 0
12:35 pm 12:35 Sunny 75 24 61 16 61 61 SSE 7 11 30.1 1019 10 16.0934 0 0
12:55 pm 12:55 Sunny 75 24 59 15 57 57 S 7 11 30.09 1019 10 16.0934 0 0
1:15 pm 13:15 Sunny 77 25 63 17 61 61 WSW 9 15 30.08 1019 10 16.0934 0 0
1:35 pm 13:35 Sunny 77 25 61 16 57 57 S 8 13 30.07 1018 10 16.0934 0 0
1:55 pm 13:55 Mostly Cloudy 77 25 61 16 57 57 S 8 13 30.07 1018 10 16.0934 0 0
2:15 pm 14:15 Cloudy 77 25 63 17 61 61 SW 7 11 30.06 1018 10 16.0934 0 0
2:35 pm 14:35 Cloudy 77 25 63 17 61 61 S 8 13 30.05 1018 10 16.0934 0 0
2:55 pm 14:55 Cloudy 77 25 64 18 65 65 SSW 10 17 30.05 1018 10 16.0934 0 0
3:15 pm 15:15 Mostly Cloudy 79 26 64 18 61 61 S 7 11 30.04 1017 10 16.0934 0 0
3:35 pm 15:35 Partly Cloudy 79 26 64 18 61 61 S 8 13 30.03 1017 10 16.0934 0 0
3:55 pm 15:55 Partly Cloudy 79 26 64 18 61 61 SSW 7 11 30.03 1017 10 16.0934 0 0
4:15 pm 16:15 Sunny 79 26 64 18 61 61 W 8 13 30.03 1017 10 16.0934 0 0
4:35 pm 16:35 Sunny 79 26 64 18 61 61 SSW 6 9 30.02 1017 10 16.0934 0 0
4:55 pm 16:55 Partly Cloudy 79 26 66 19 65 65 S 3 6 30.02 1017 10 16.0934 0 0
5:15 pm 17:15 Partly Cloudy 79 26 66 19 65 65 S 6 9 30.02 1017 10 16.0934 0 0
5:35 pm 17:35 Partly Cloudy 79 26 64 18 61 61 S 6 9 30.02 1017 10 16.0934 0 0
5:55 pm 17:55 Sunny 79 26 68 20 70 70 S 3 6 30.02 1017 10 16.0934 0 0
6:15 pm 18:15 Sunny 79 26 68 20 70 70 SSW 5 7 30.02 1017 10 16.0934 0 0
6:35 pm 18:35 Sunny 79 26 68 20 70 70 S 3 6 30.02 1017 10 16.0934 0 0
6:55 pm 18:55 Sunny 77 25 68 20 74 74 SSW 3 6 30.02 1017 10 16.0934 0 0
7:15 pm 19:15 Sunny 75 24 68 20 78 78 Calm 30.03 1017 10 16.0934 0 0
7:35 pm 19:35 Clear 75 24 68 20 78 78 Calm 30.03 1017 10 16.0934 0 0
7:55 pm 19:55 Clear 73 23 68 20 83 83 Calm 30.04 1017 10 16.0934 0 0
8:15 pm 20:15 Partly Cloudy 73 23 68 20 83 83 Calm 30.04 1017 10 16.0934 0 0
8:35 pm 20:35 Cloudy 72 22 68 20 88 88 SSW 5 7 30.05 1018 10 16.0934 0 0
8:55 pm 20:55 Cloudy 72 22 68 20 88 88 SSW 3 6 30.06 1018 10 16.0934 0 0
9:15 pm 21:15 Cloudy 72 22 68 20 88 88 SSW 3 6 30.07 1018 10 16.0934 0 0
9:35 pm 21:35 Mostly Cloudy 72 22 68 20 88 88 SSW 5 7 30.07 1018 10 16.0934 0 0
9:55 pm 21:55 Mostly Cloudy 72 22 68 20 88 88 SSW 5 7 30.07 1018 10 16.0934 0 0
10:15 pm 22:15 Mostly Cloudy 72 22 68 20 88 88 Calm 30.07 1018 10 16.0934 0 0
10:35 pm 22:35 Cloudy 70 21 68 20 94 94 Calm 30.07 1018 10 16.0934 0 0
10:55 pm 22:55 Cloudy 70 21 68 20 94 94 WSW 3 6 30.07 1018 10 16.0934 0 0
11:15 pm 23:15 Mostly Cloudy 70 21 68 20 94 94 W 3 6 30.07 1018 10 16.0934 0 0
11:35 pm 23:35 Mostly Cloudy 70 21 68 20 94 94 WSW 3 6 30.07 1018 10 16.0934 0 0
11:55 pm 23:55 Mostly Cloudy 70 21 68 20 94 94 Calm 30.07 1018 10 16.0934 0 0

Powered by AerisWeather